Regional Weather Roundup
Issued by NWS Newport/Morehead, NC

Current Version | Previous Version | Graphics & Text | Print | Product List | Glossary On
Versions: 1 2 3 4 5 6 7 8 9 10 11 12 13 14 15 16 17 18 19 20 21 22 23 24 25 26 27 28 29 30 31 32 33 34 35 36 37 38 39 40 41 42 43 44 45 46 47 48 49 50
000 ASUS42 KMHX 192125 RWRMHX WEATHER ROUNDUP FOR EASTERN NORTH CAROLINA NATIONAL WEATHER SERVICE NEWPORT/MOREHEAD CITY NC 400 PM EST MON FEB 19 2018 NOTE: "FAIR" INDICATES FEW OR NO CLOUDS BELOW 12,000 FEET WITH NO SIGNIFICANT WEATHER AND/OR OBSTRUCTIONS TO VISIBILITY NCZ015>017-031-032-045>047-102-103-192200- NORTH COAST CITY SKY/WX TMP DP RH WIND PRES REMARKS EDENTON CLOUDY 68 63 84 SE6 30.38F ELIZABETH CITY CLOUDY 64 61 90 S7 30.38F KITTY HAWK CLOUDY 64 63 99 S6 30.38S MANTEO CLOUDY 57 55 93 S5 30.41S $$ NCZ045>047-081-094-103-104-192200- CENTRAL COAST CITY SKY/WX TMP DP RH WIND PRES REMARKS FRISCO CLOUDY 65 61 87 S10 30.41S $$ NCZ095-097-098-100-101-192200- SOUTHERN COAST CITY SKY/WX TMP DP RH WIND PRES REMARKS BEAUFORT FAIR 70 63 78 S9 30.39S CEDAR ISLAND NOT AVBL JACKSONVILLE PTSUNNY 72 64 76 S15G21 30.37S PINEY ISLAND NOT AVBL WILMINGTON CLOUDY 71 65 81 S10 30.37S $$ NCZ011>013-027>030-043-044-078>080-089-090>093-098-192200- COASTAL PLAIN CITY SKY/WX TMP DP RH WIND PRES REMARKS AHOSKIE CLOUDY 51 51 100 CALM 30.40S FOG CLINTON CLOUDY 62 62 98 CALM 30.37F ELIZABETHTOWN NOT AVBL GOLDSBORO CLOUDY 60 51 72 NW5 30.36S HAZE GREENVILLE FAIR 61 54 77 N3 30.38S HAVELOCK PTSUNNY 73 65 75 S13G22 30.39S KENANSVILLE DRIZZLE 68 64 88 CALM 30.37S FOG KINSTON CLOUDY 66 55 68 N5 30.38R NEW BERN PTSUNNY 73 63 70 SW13G20 30.38S RICHLANDS NOT AVBL ROCKY MOUNT CLOUDY 52 49 89 CALM 30.39F FOG WASHINGTON CLOUDY 69 58 70 NW3 30.37S WHITEVILLE CLOUDY 64 63 96 SE3 30.36F FOG $$ AMZ130-135-150-152-154-156-158-170-250-252-270-ANZ085-086-088-633-658-670-192200- MARINE OBSERVATIONS STATION/POSITION TIME TEMP WIND PRES WAVE SWELL AIR SEA DIR/SP/G HT/PER HT/PER (UTC) (F) (DEG/KT/KT) (MB) (FT/S) (FT/S) CHESAPEAKE LIGHT NOT AVBL 64 E VA BEACH 2050 54 50 150/ 8/ 10 1030.2 3/ 9 2/ 9 DUCK 2100 53 45 150/ 12/ 14 1028.6 2 E DUCK 2100 45 N/A 3/ 4 OREGON INLET 2100 150/ 7/ 9 1029.5 13E OREGON INLT 2048 46 N/A 4/ 5 3/ 5 HATTERAS CG 2100 64 56 160/ 8/ 11 1029.5 DIAMOND BUOY 2110 70 71 160/ 16/ 21 1030.2 CAPE LOOKOUT 2100 170/ 9/ 10 1029.3 BEAUFORT LAB 2100 63 54 180/ 7/ 8 1029.1 30 SE NEW RVR IN 2008 70 67 170/ 8/ 12 1029.0 30 SE NEW RVR IN 2100 67 N/A 5/ 6 27 SE WRIGHTSVLE 2008 69 67 170/ 10/ 14 1028.7 5 SE WRIGHTSVLE 2108 60 54 150/ 4/ 8 1028.3 225 S CAPE HAT 2050 71 73 100/ 14/ 16 1029.4 5/ 9 3/ 9 41 SE CHARLESTON 2110 71 69 120/ 4/ 4 1027.4 $$

USA.gov is the U.S. government's official web portal to all federal, state and local government web resources and services.